{"data":{"norad_id":51725,"epoch":"2026-09-20T02:57:09.641664Z","epoch_age_seconds":81019,"freshness":"FRESH","line1":"1 51725U 22016M   26263.12302826 -.00000797  00000+0 -12880-4 0  9991","line2":"2 51725  53.1601 165.7061 0002026  78.7622 281.3608 15.33536156252911","mean_motion":15.33536156,"eccentricity":0.0002026,"inclination_deg":53.1601,"raan_deg":165.7061,"arg_perigee_deg":78.7622,"mean_anomaly_deg":281.3608,"bstar":-1.288e-5,"rev_number":25291,"period_min":93.900622712152,"perigee_km":463.88549713286,"apogee_km":466.65844644823,"semimajor_km":6843.4089717905,"source":"CELESTRAK","updated_at":"2026-09-20T09:00:39.600447Z"}}